This demonstration page uses our WeatherBlox Daily Observations layout. Learn more.

Left ArrowRight Arrow

30.21309, -93.2044

Hourly Observations for April 29, 2022

Temp ( °F °C ) Dew Point ( °F °C ) Humidity (%) Winds ( mph kmh ) Pressure ( in mb ) Visibility ( mi km ) Precip ( " mm )
12:15 am 00:15 Clear 63 17.3 59 14.8 85 85 SSE 5 7 29.98 1015 10 16 0.00 0.00
12:35 am 00:35 Clear 61 16.3 58 14.5 89 89 SE 5 7 29.97 1015 10 16 0.00 0.00
12:55 am 00:55 Clear 62 16.4 58 14.6 89 89 SSE 3 6 29.97 1015 10 16 0.00 0.00
1:15 am 01:15 Clear 61 15.9 58 14.4 91 91 SSE 3 6 29.97 1015 10 16 0.00 0.00
1:35 am 01:35 Clear 60 15.7 58 14.4 92 92 S 3 6 29.96 1015 10 16 0.00 0.00
1:55 am 01:55 Clear 62 16.4 58 14.7 90 90 SE 5 7 29.95 1014 10 16 0.00 0.00
2:15 am 02:15 Clear 62 16.5 58 14.7 89 89 SSE 3 6 29.95 1014 10 16 0.00 0.00
2:35 am 02:35 Clear 62 16.6 58 14.7 89 89 SE 5 7 29.94 1014 10 16 0.00 0.00
2:55 am 02:55 Clear 62 16.7 59 15 90 90 SE 3 6 29.93 1014 10 16 0.00 0.00
3:15 am 03:15 Clear 61 16.3 59 14.8 91 91 ESE 5 7 29.92 1013 10 16 0.00 0.00
3:35 am 03:35 Clear 61 16.3 59 14.9 91 91 E 3 6 29.93 1014 10 16 0.00 0.00
3:55 am 03:55 Clear 62 16.6 59 15.2 92 92 ESE 5 7 29.92 1013 10 16 0.00 0.00
4:15 am 04:15 Clear 61 16.3 59 15.1 93 93 SE 6 9 29.91 1013 10 16 0.00 0.00
4:35 am 04:35 Clear 60 15.6 58 14.5 93 93 ESE 3 6 29.91 1013 10 16 0.00 0.00
4:55 am 04:55 Clear 61 15.9 59 14.8 93 93 SE 5 7 29.91 1013 10 16 0.00 0.00
5:15 am 05:15 Clear 60 15.8 59 14.8 94 94 ESE 3 6 29.92 1013 10 16 0.00 0.00
5:35 am 05:35 Clear 61 15.9 59 14.8 93 93 E 5 7 29.92 1013 10 16 0.00 0.00
6:00 am 06:00 Mostly Clear 61 16 57 14 88 88 E 6 9 29.92 1013 10 16 0.00 0.00
6:45 am 06:45 Mostly Sunny 59 15 57 14 94 94 E 5 7 29.93 1014 10 16 0.00 0.00
7:53 am 07:53 Mostly Sunny 64 18 61 16 88 88 ESE 5 7 29.95 1014 10 16 0.00 0.00
8:50 am 08:50 Mostly Sunny 72 22 59 15 65 65 SSE 10 17 29.95 1014 10 16 0.00 0.00
9:51 am 09:51 Mostly Sunny 75 24 57 14 54 54 S 15 24 29.96 1015 10 16 0.00 0.00
10:50 am 10:50 Mostly Sunny 79 26 61 16 54 54 S 12 19 29.96 1015 10 16 0.00 0.00
11:45 am 11:45 Mostly Sunny 81 27 61 16 51 51 SSW 10 17 29.96 1015 10 16 0.00 0.00
12:50 pm 12:50 Mostly Sunny 81 27 61 16 51 51 S 13 20 29.95 1014 10 16 0.00 0.00
1:50 pm 13:50 Mostly Sunny 82 28 61 16 48 48 SSW 13 20 29.94 1014 10 16 0.00 0.00
2:45 pm 14:45 Mostly Sunny 82 28 61 16 48 48 undefined N/A 29.92 1013 10 16 0.00 0.00
3:45 pm 15:45 Mostly Sunny 81 27 63 17 54 54 SSW 16 26 29.90 1013 10 16 0.00 0.00
4:45 pm 16:45 Partly Cloudy 81 27 61 16 51 51 S 12 19 29.88 1012 10 16 0.00 0.00
5:45 pm 17:45 Mostly Sunny 81 27 63 17 54 54 S 12 19 29.87 1011 10 16 0.00 0.00
6:45 pm 18:45 Mostly Sunny 79 26 63 17 58 58 S 9 15 29.86 1011 10 16 0.00 0.00
7:52 pm 19:52 Mostly Clear 70 21 61 16 73 73 SSE 8 13 29.87 1012 10 16 0.00 0.00
8:45 pm 20:45 Mostly Clear 70 21 63 17 78 78 SE 8 13 29.87 1012 10 16 0.00 0.00
9:45 pm 21:45 Mostly Clear 64 18 61 16 88 88 SSE 7 11 29.88 1012 10 16 0.00 0.00
10:15 pm 22:15 Clear 65 18.4 62 16.7 90 90 SSE 7 11 29.88 1012 10 16 0.00 0.00
10:35 pm 22:35 Clear 64 17.8 61 16.3 91 91 SSE 7 11 29.88 1012 10 16 0.00 0.00
10:55 pm 22:55 Clear 65 18.4 62 16.9 91 91 SSE 9 15 29.88 1012 10 16 0.00 0.00
11:15 pm 23:15 Clear 67 19.2 63 17.2 88 88 SSE 9 15 29.87 1012 10 16 0.00 0.00
11:35 pm 23:35 Clear 66 19 63 17 88 88 SSE 9 15 29.87 1012 10 16 0.00 0.00
11:55 pm 23:55 Clear 65 18.6 62 16.9 90 90 SSE 8 13 29.87 1012 10 16 0.00 0.00

Powered by AerisWeather